sat.trackr.live / text

‹ back to catalog

ONEWEB-0191

NORAD 48239 · 2021-031AF

PAYLOAD ACTIVE UNKNOWN

§ Identity

Operator
Country
UK
Launch date
2021-04-25
Launch site
VOSTO
Launch vehicle
Mass (kg)
RCS (m²)

Purposes: comms

External: N2YO · Heavens-Above · Gunter

§ Orbital elements

Epoch: 2026-09-09T22:52:02.767584Z

Period
109.55 min
Inclination
87.8904°
Eccentricity
0.0001907
Mean motion
13.14503501 rev/d
Perigee alt
1,204.3 km
Apogee alt
1,207.2 km
Semi-major
7,583.9 km
B*
7.2497e-5
RAAN
272.8001°
Arg perigee
95.2443°
Mean anomaly
264.8905°
Rev number
25,930

§ Raw data

ONEWEB-01911 48239U 21031AF  26252.95280981  .00000040  00000+0  72497-4 0  99982 48239  87.8904 272.8001 0001907  95.2443 264.8905 13.14503501259304

JSON: /api/v1/satellites/48239 · /tle

For live sub-satellite position, see the globe view (requires WebGL).

§ Visibility from observer

Set your observer location to see the next 7 days of passes ≥ 10°. The values pass through the URL so the page stays shareable.

No JS? Fill the form by hand. The geolocation button needs JavaScript.